TimeEST,TemperatureF,Dew PointF,Humidity,Sea Level PressureIn,VisibilityMPH,Wind Direction,Wind SpeedMPH,Gust SpeedMPH,PrecipitationIn,Events,Conditions,WindDirDegrees,DateUTC
12:16 AM,35.6,33.8,93,30.25,10.0,Calm,Calm,-,N/A,,Clear,0,2012-12-15 05:16:00
12:59 AM,35.6,33.8,93,30.26,10.0,ESE,3.5,-,N/A,,Clear,120,2012-12-15 05:59:00
1:20 AM,35.6,33.8,93,30.26,10.0,Calm,Calm,-,N/A,,Clear,0,2012-12-15 06:20:00
2:03 AM,35.6,33.8,93,30.26,10.0,Calm,Calm,-,N/A,,Clear,0,2012-12-15 07:03:00
2:24 AM,35.6,33.8,93,30.25,10.0,Calm,Calm,-,N/A,,Clear,0,2012-12-15 07:24:00
2:45 AM,35.6,33.8,93,30.25,10.0,Calm,Calm,-,N/A,,Clear,0,2012-12-15 07:45:00
3:28 AM,35.6,35.6,100,30.26,7.0,Calm,Calm,-,N/A,,Clear,0,2012-12-15 08:28:00
3:50 AM,37.4,37.4,100,30.26,7.0,Calm,Calm,-,N/A,,Clear,0,2012-12-15 08:50:00
4:11 AM,37.4,35.6,93,30.26,7.0,Calm,Calm,-,N/A,,Clear,0,2012-12-15 09:11:00
4:32 AM,35.6,35.6,100,30.25,7.0,Calm,Calm,-,N/A,,Clear,0,2012-12-15 09:32:00
4:53 AM,35.6,35.6,100,30.25,10.0,Calm,Calm,-,N/A,,Clear,0,2012-12-15 09:53:00
5:15 AM,35.6,35.6,100,30.26,7.0,Calm,Calm,-,N/A,,Clear,0,2012-12-15 10:15:00
5:36 AM,35.6,35.6,100,30.26,7.0,Calm,Calm,-,N/A,,Clear,0,2012-12-15 10:36:00
5:57 AM,35.6,35.6,100,30.27,7.0,Calm,Calm,-,N/A,,Clear,0,2012-12-15 10:57:00
6:19 AM,35.6,35.6,100,30.27,5.0,Calm,Calm,-,N/A,,Clear,0,2012-12-15 11:19:00
6:40 AM,35.6,35.6,100,30.28,5.0,Calm,Calm,-,N/A,,Clear,0,2012-12-15 11:40:00
7:01 AM,37.4,37.4,100,30.28,7.0,Calm,Calm,-,N/A,,Clear,0,2012-12-15 12:01:00
7:22 AM,37.4,35.6,93,30.27,10.0,Calm,Calm,-,N/A,,Clear,0,2012-12-15 12:22:00
7:44 AM,37.4,33.8,87,30.28,10.0,Calm,Calm,-,N/A,,Clear,0,2012-12-15 12:44:00
8:05 AM,39.2,33.8,81,30.29,10.0,NE,3.5,-,N/A,,Clear,40,2012-12-15 13:05:00
8:26 AM,41.0,32.0,70,30.30,10.0,Calm,Calm,-,N/A,,Clear,0,2012-12-15 13:26:00
8:47 AM,41.0,32.0,70,30.31,10.0,Calm,Calm,-,N/A,,Clear,0,2012-12-15 13:47:00
9:09 AM,41.0,32.0,70,30.31,10.0,ENE,3.5,-,N/A,,Clear,60,2012-12-15 14:09:00
9:30 AM,42.8,32.0,66,30.32,10.0,East,3.5,-,N/A,,Clear,90,2012-12-15 14:30:00
9:51 AM,44.6,32.0,61,30.31,10.0,East,5.8,-,N/A,,Clear,80,2012-12-15 14:51:00
10:12 AM,44.6,32.0,61,30.32,10.0,East,6.9,-,N/A,,Clear,80,2012-12-15 15:12:00
10:34 AM,44.6,32.0,61,30.31,10.0,ENE,6.9,-,N/A,,Clear,70,2012-12-15 15:34:00
10:55 AM,46.4,32.0,57,30.30,10.0,East,6.9,-,N/A,,Clear,90,2012-12-15 15:55:00
11:16 AM,46.4,32.0,57,30.28,10.0,East,8.1,-,N/A,,Clear,100,2012-12-15 16:16:00
11:37 AM,48.2,32.0,54,30.27,10.0,ESE,8.1,-,N/A,,Clear,120,2012-12-15 16:37:00
11:59 AM,50.0,32.0,50,30.26,10.0,ESE,8.1,-,N/A,,Clear,110,2012-12-15 16:59:00
12:20 PM,50.0,32.0,50,30.25,10.0,ESE,8.1,-,N/A,,Clear,120,2012-12-15 17:20:00
1:02 PM,51.8,32.0,47,30.25,10.0,SE,4.6,-,N/A,,Clear,140,2012-12-15 18:02:00
1:24 PM,51.8,32.0,47,30.25,10.0,SE,5.8,-,N/A,,Clear,140,2012-12-15 18:24:00
1:45 PM,51.8,32.0,47,30.24,10.0,SSE,6.9,-,N/A,,Clear,150,2012-12-15 18:45:00
2:06 PM,51.8,32.0,47,30.23,10.0,SSE,5.8,-,N/A,,Clear,150,2012-12-15 19:06:00
2:27 PM,51.8,32.0,47,30.22,10.0,SSE,5.8,-,N/A,,Clear,160,2012-12-15 19:27:00
2:49 PM,51.8,32.0,47,30.22,10.0,SSE,4.6,-,N/A,,Clear,150,2012-12-15 19:49:00
3:10 PM,50.0,32.0,50,30.21,10.0,SSE,4.6,-,N/A,,Clear,160,2012-12-15 20:10:00
3:31 PM,50.0,33.8,54,30.21,10.0,Calm,Calm,-,N/A,,Clear,0,2012-12-15 20:31:00
3:52 PM,46.4,37.4,71,30.21,10.0,Calm,Calm,-,N/A,,Clear,0,2012-12-15 20:52:00
4:14 PM,44.6,39.2,81,30.21,10.0,Calm,Calm,-,N/A,,Clear,0,2012-12-15 21:14:00
4:35 PM,44.6,37.4,76,30.20,10.0,Calm,Calm,-,N/A,,Clear,0,2012-12-15 21:35:00
4:56 PM,44.6,37.4,76,30.20,10.0,Calm,Calm,-,N/A,,Clear,0,2012-12-15 21:56:00
5:17 PM,44.6,37.4,76,30.19,10.0,Calm,Calm,-,N/A,,Clear,0,2012-12-15 22:17:00
5:39 PM,44.6,37.4,76,30.19,10.0,ESE,3.5,-,N/A,,Clear,110,2012-12-15 22:39:00
6:00 PM,44.6,37.4,76,30.19,10.0,Calm,Calm,-,N/A,,Clear,0,2012-12-15 23:00:00
6:21 PM,44.6,37.4,76,30.20,10.0,Calm,Calm,-,N/A,,Clear,0,2012-12-15 23:21:00
6:42 PM,44.6,35.6,71,30.19,10.0,Calm,Calm,-,N/A,,Clear,0,2012-12-15 23:42:00
7:46 PM,44.6,37.4,76,30.19,10.0,East,4.6,-,N/A,,Clear,80,2012-12-16 00:46:00
8:07 PM,44.6,37.4,76,30.18,10.0,ESE,3.5,-,N/A,,Clear,110,2012-12-16 01:07:00
8:50 PM,44.6,37.4,76,30.17,10.0,East,5.8,-,N/A,,Clear,90,2012-12-16 01:50:00
9:11 PM,44.6,37.4,76,30.17,10.0,East,3.5,-,N/A,,Clear,100,2012-12-16 02:11:00
9:32 PM,44.6,37.4,76,30.16,10.0,East,5.8,-,N/A,,Clear,100,2012-12-16 02:32:00
9:53 PM,44.6,37.4,76,30.17,10.0,East,4.6,-,N/A,,Clear,100,2012-12-16 02:53:00
10:15 PM,44.6,37.4,76,30.16,10.0,ESE,5.8,-,N/A,,Clear,120,2012-12-16 03:15:00
10:36 PM,44.6,39.2,81,30.15,10.0,ESE,8.1,-,N/A,,Clear,120,2012-12-16 03:36:00
10:57 PM,44.6,39.2,81,30.15,10.0,ESE,6.9,-,N/A,,Clear,110,2012-12-16 03:57:00
11:19 PM,44.6,39.2,81,30.15,10.0,ESE,3.5,-,N/A,,Scattered Clouds,110,2012-12-16 04:19:00
11:40 PM,44.6,39.2,81,30.15,10.0,Calm,Calm,-,N/A,,Scattered Clouds,0,2012-12-16 04:40:00